SW1035 Weather Reports


time (UTC)temp
C
wind
direction
speed
KPH
gust
KPH
rain 1hr
cm
rain 24hr
cm
rain mn
cm
humidity
%
barometer
mb
20260506231551 23 159 3.2 12.9 0.00 0.00 0.00 53 1016.1
20260506230055 24 167 1.6 11.3 0.00 0.00 0.00 52 1016.2
20260506224549 24 238 3.2 12.9 0.00 0.00 0.00 52 1016.4
20260506223104 23 236 3.2 11.3 0.00 0.00 0.00 53 1016.7
20260506221555 23 140 1.6 12.9 0.00 0.00 0.00 54 1017.1
20260506220049 23 178 6.4 12.9 0.00 0.00 0.00 53 1017.3
20260506214558 23 175 1.6 9.7 0.00 0.00 0.00 53 1017.4
20260506213054 23 223 4.8 12.9 0.00 0.00 0.00 53 1017.5
20260506211549 23 196 3.2 9.7 0.00 0.00 0.00 51 1017.5
20260506210050 23 186 1.6 9.7 0.00 0.00 0.00 52 1017.6
20260506204555 22 0 4.8 14.5 0.00 0.00 0.00 53 1017.6
20260506203101 23 129 1.6 8.0 0.00 0.00 0.00 54 1017.6
20260506201553 22 326 3.2 11.3 0.00 0.00 0.00 54 1018.0
20260506200130 22 317 3.2 14.5 0.00 0.00 0.00 54 1018.2
20260506194604 22 120 3.2 17.7 0.00 0.00 0.00 54 1018.2
20260506193052 22 207 3.2 12.9 0.00 0.00 0.00 55 1018.2
20260506191554 22 144 3.2 11.3 0.00 0.00 0.00 53 1018.2
20260506190052 22 217 1.6 11.3 0.00 0.00 0.00 50 1018.2
20260506184553 22 0 1.6 8.0 0.00 0.00 0.00 52 1018.2
20260506183048 21 0 1.6 11.3 0.00 0.00 0.00 54 1018.4
20260506181550 20 186 1.6 12.9 0.00 0.00 0.00 54 1018.6
20260506180104 21 184 0.0 6.4 0.00 0.00 0.00 54 1018.8
20260506174552 20 102 1.6 6.4 0.00 0.00 0.00 56 1018.7
20260506173107 19 207 3.2 9.7 0.00 0.00 0.00 56 1018.8
20260506171557 18 213 1.6 8.0 0.00 0.00 0.00 57 1018.6
20260506170053 18 216 1.6 8.0 0.00 0.00 0.00 60 1018.7
20260506164550 17 0 1.6 6.4 0.00 0.00 0.00 64 1018.7
20260506163053 16 195 0.0 4.8 0.00 0.00 0.00 68 1018.7
20260506161557 15 0 1.6 8.0 0.00 0.00 0.00 71 1018.7
20260506160104 14 0 0.0 6.4 0.00 0.00 0.00 76 1018.6
20260506154552 13 0 0.0 6.4 0.00 0.00 0.00 79 1018.7
20260506153055 12 0 0.0 1.6 0.00 0.00 0.00 83 1018.5
20260506151555 11 0 0.0 1.6 0.00 0.00 0.00 83 1018.6
20260506150101 10 0 0.0 0.0 0.00 0.00 0.00 84 1018.5
20260506144554 10 0 0.0 0.0 0.00 0.00 0.00 84 1018.4
20260506143054 10 0 0.0 0.0 0.00 0.00 0.00 84 1018.3
20260506141559 9 0 0.0 0.0 0.00 0.00 0.00 84 1018.3
20260506140050 8 0 0.0 0.0 0.00 0.00 0.00 84 1018.3
20260506134616 8 0 0.0 0.0 0.00 0.00 0.00 84 1018.2
20260506133054 8 0 0.0 0.0 0.00 0.00 0.00 84 1018.1
20260506131607 8 0 0.0 0.0 0.00 0.00 0.00 84 1018.0
20260506130050 8 0 0.0 0.0 0.00 0.00 0.00 84 1017.8
20260506124551 8 0 0.0 0.0 0.00 0.00 0.00 83 1017.8
20260506123053 8 0 0.0 0.0 0.00 0.00 0.00 83 1017.8
20260506121549 9 0 0.0 0.0 0.00 0.00 0.00 84 1017.7
20260506120052 9 0 0.0 0.0 0.00 0.00 0.00 84 1017.6
20260506114556 9 0 0.0 0.0 0.00 0.00 0.00 83 1017.5
20260506113055 9 0 0.0 0.0 0.00 0.00 0.00 83 1017.5
20260506111612 9 0 0.0 0.0 0.00 0.00 0.00 83 1017.5
20260506110053 9 0 0.0 0.0 0.00 0.00 0.00 83 1017.5
20260506104548 9 0 0.0 1.6 0.00 0.00 0.00 83 1017.4
20260506103059 9 0 0.0 0.0 0.00 0.00 0.00 84 1017.4
20260506101550 9 0 0.0 0.0 0.00 0.00 0.00 84 1017.5
20260506100056 9 0 0.0 0.0 0.00 0.00 0.00 83 1017.5
20260506094552 9 0 0.0 0.0 0.00 0.00 0.00 83 1017.5
20260506093057 10 0 0.0 0.0 0.00 0.00 0.00 84 1017.6
20260506091555 10 0 0.0 1.6 0.00 0.00 0.00 84 1017.6
20260506090051 10 0 0.0 0.0 0.00 0.00 0.00 84 1017.9
20260506084553 10 0 0.0 0.0 0.00 0.00 0.00 84 1017.9
20260506083114 10 0 0.0 0.0 0.00 0.00 0.00 83 1017.8
20260506081559 10 0 0.0 0.0 0.00 0.00 0.00 83 1017.8
20260506073054 10 0 0.0 0.0 0.00 0.00 0.00 81 1017.6
20260506071555 10 0 0.0 1.6 0.00 0.00 0.00 81 1017.5
20260506070103 10 0 0.0 1.6 0.00 0.00 0.00 80 1017.2
20260506061553 11 0 0.0 0.0 0.00 0.00 0.00 80 1016.8
20260506044550 12 0 0.0 1.6 0.00 0.00 0.00 75 1016.3
20260506043057 12 0 0.0 0.0 0.00 0.00 0.00 74 1016.0
20260506041603 13 0 0.0 3.2 0.00 0.00 0.00 73 1015.9
20260506040059 13 0 0.0 3.2 0.00 0.00 0.00 72 1015.6
20260506034558 13 0 0.0 0.0 0.00 0.00 0.00 72 1015.3
20260506033057 13 0 0.0 0.0 0.00 0.00 0.00 71 1015.1
20260506031557 14 0 0.0 1.6 0.00 0.00 0.00 70 1015.0
20260506030059 15 0 0.0 3.2 0.00 0.00 0.00 68 1014.7
20260506024601 16 0 0.0 0.0 0.00 0.00 0.00 67 1014.6
20260506023056 16 0 0.0 1.6 0.00 0.00 0.00 65 1014.3
20260506021558 16 0 0.0 3.2 0.00 0.00 0.00 64 1014.2
20260506020106 17 0 0.0 3.2 0.00 0.00 0.00 63 1014.1
20260506014609 17 0 0.0 1.6 0.00 0.00 0.00 61 1014.0
20260506013049 18 0 0.0 4.8 0.00 0.00 0.00 60 1014.0
20260506011616 18 0 0.0 1.6 0.00 0.00 0.00 60 1014.0
20260506010049 18 0 0.0 3.2 0.00 0.00 0.00 59 1013.9
20260506004602 19 0 0.0 3.2 0.00 0.00 0.00 58 1014.0
20260506003053 20 0 0.0 4.8 0.00 0.00 0.00 57 1013.9
20260506001556 20 211 0.0 4.8 0.00 0.00 0.00 54 1014.0
20260506000115 20 126 1.6 4.8 0.00 0.00 0.00 52 1013.8
20260505234554 20 197 3.2 8.0 0.00 0.00 0.00 52 1013.7
20260505233052 20 121 3.2 8.0 0.00 0.00 0.00 53 1013.7